Weather History for Houghton Lake, MI

Change the Weather History Date:

Monday, June 24, 2013

  Actual Average Record
Temperature  
Mean Temperature 77 °F 65 °F  
Max Temperature 85 °F 78 °F 93 °F (1923)
Min Temperature 69 °F 52 °F 34 °F (1932)
Degree Days  
Heating Degree Days 0 3  
Month to date heating degree days 102 111  
Since 1 June heating degree days 102 111  
Since 1 July heating degree days 7666 8130  
Cooling Degree Days 12 3  
Month to date cooling degree days 53 41  
Year to date cooling degree days 93 57  
Since 1 June cooling degree days 53 41  
Growing Degree Days 27 (Base 50)    
Moisture  
Dew Point 66 °F    
Average Humidity 73    
Maximum Humidity 90    
Minimum Humidity 55    
Precipitation  
Precipitation 0.00 in 0.10 in 0.82 in (1994)
Month to date precipitation 0.72 2.51  
Year to date precipitation 16.66 12.37  
Sea Level Pressure  
Sea Level Pressure 29.96 in    
Wind  
Wind Speed 8 mph (SW)    
Max Wind Speed 13 mph    
Max Gust Speed 17 mph    
Visibility 10 miles    
Events      
T = Trace of Precipitation, MM = Missing Value Source: NWS Daily Summary

Daily Weather History Graph

Daily Weather History Graph

Search for Another Location

Airport:

Trip Planner

Search our weather history database for the weather conditions in past years. The results will help you decide how hot, cold, wet, or windy it might be!

Date:

Astronomy

Jun. 24, 2013 Rise Set
Actual Time 5:55 AM EDT 9:26 PM EDT
Civil Twilight 5:18 AM EDT 10:03 PM EDT
Nautical Twilight 4:30 AM EDT 10:52 PM EDT
Astronomical Twilight 3:27 AM EDT 11:54 PM EDT
Moon 10:23 PM EDT (6/24) 7:26 AM EDT (6/24)
Length of Visible Light 16h 45m
Length of Day
15h 31m
Full, 98% of the Moon is Illuminated
Jun 24
Full
Jun 30
Last Quarter
Jul 8
New
Jul 15
First Quarter
Jul 22
Full

Hourly Weather History & Observations

Time (EDT) Temp. Heat Index Dew Point Humidity Pressure Visibility Wind Dir Wind Speed Gust Speed Precip Events Conditions
12:53 AM 73.9 °F - 64.0 °F 71% 29.98 in 10.0 mi SW 6.9 mph - N/A   Clear
1:53 AM 73.0 °F - 64.9 °F 76% 29.97 in 10.0 mi SW 9.2 mph - 0.02 in   Clear
2:53 AM 72.0 °F - 66.9 °F 84% 29.98 in 10.0 mi SW 6.9 mph - N/A   Clear
3:53 AM 72.0 °F - 66.9 °F 84% 29.97 in 10.0 mi SW 6.9 mph - N/A   Clear
4:53 AM 72.0 °F - 66.9 °F 84% 29.98 in 10.0 mi SW 6.9 mph - N/A   Clear
5:53 AM 70.0 °F - 66.9 °F 90% 29.98 in 10.0 mi SSW 5.8 mph - 0.01 in   Clear
6:53 AM 71.1 °F - 66.9 °F 87% 29.99 in 10.0 mi SW 4.6 mph - N/A   Clear
7:53 AM 72.0 °F - 68.0 °F 87% 29.99 in 10.0 mi SW 5.8 mph - N/A   Clear
8:53 AM 73.9 °F - 68.0 °F 82% 29.99 in 10.0 mi SW 10.4 mph - N/A   Clear
9:53 AM 75.9 °F - 68.0 °F 76% 29.99 in 10.0 mi SW 8.1 mph - N/A   Clear
10:53 AM 78.1 °F - 68.0 °F 71% 30.00 in 10.0 mi WSW 6.9 mph - N/A   Scattered Clouds
11:53 AM 80.1 °F 82.7 °F 68.0 °F 67% 30.00 in 10.0 mi SW 8.1 mph - N/A   Clear
12:53 PM 82.0 °F 84.1 °F 66.0 °F 58% 29.99 in 10.0 mi WSW 9.2 mph - N/A   Clear
1:53 PM 82.9 °F 85.0 °F 66.0 °F 56% 29.98 in 10.0 mi West 9.2 mph 17.3 mph N/A   Mostly Cloudy
2:53 PM 81.0 °F 83.0 °F 66.0 °F 60% 29.95 in 10.0 mi WSW 10.4 mph - N/A   Scattered Clouds
3:53 PM 82.9 °F 85.4 °F 66.9 °F 58% 29.95 in 10.0 mi WSW 9.2 mph - N/A   Scattered Clouds
4:53 PM 84.0 °F 86.5 °F 66.9 °F 56% 29.92 in 10.0 mi West 9.2 mph - N/A   Scattered Clouds
5:53 PM 80.1 °F 82.3 °F 66.9 °F 64% 29.91 in 10.0 mi West 9.2 mph - N/A   Overcast
6:53 PM 80.1 °F 82.7 °F 68.0 °F 67% 29.92 in 10.0 mi WSW 5.8 mph - N/A   Mostly Cloudy
7:53 PM 80.1 °F 82.1 °F 66.0 °F 62% 29.91 in 10.0 mi WSW 9.2 mph - N/A   Mostly Cloudy
8:53 PM 78.1 °F - 64.9 °F 64% 29.91 in 10.0 mi WSW 8.1 mph - N/A   Clear
9:53 PM 75.0 °F - 63.0 °F 66% 29.89 in 10.0 mi SW 6.9 mph - N/A   Clear
10:53 PM 73.0 °F - 62.1 °F 68% 29.90 in 10.0 mi SSW 5.8 mph - N/A   Clear
11:53 PM 70.0 °F - 62.1 °F 76% 29.90 in 10.0 mi SSW 5.8 mph - N/A   Clear